Location: Courcelles
(49.2596°N, 1.7419°E)
Time: 22:02:23
(UTC+00:00)

Resurs 01 Rocket - Pass Details

Date: 17 November 2025
Orbit: 627 x 636 km, 97.7° (Epoch: 05 December)

Event Time Altitude Azimuth Distance (km) Brightness Sun altitude
Exits shadow 18:46:17 25° 356° (N) 1,296 3.2 -25.4°
Drops below altitude 10° 18:48:10 10° 351° (N) 2,036 4.3 -25.7°
Sets 18:50:24 0° 349° (N) 2,948 5.2 -26.1°
